Regional Weather Roundup
Issued by NWS State College, PA

Home | Current Version | Previous Version | Graphics & Text | Print | Product List | Glossary On
Versions: 1 2 3 4 5 6 7 8 9 10 11 12 13 14 15 16 17 18 19 20 21 22 23 24 25 26 27 28 29 30 31 32 33 34 35 36 37 38 39 40 41 42 43 44 45 46 47 48 49 50
000
ASUS41 KCTP 270410
RWRCTP

REGIONAL WEATHER ROUNDUP
NATIONAL WEATHER SERVICE STATE COLLEGE PA
1200 AM EDT WED JUL 27 2016

Note: "fair" indicates few or no clouds below 12,000 feet with no
significant weather and/or obstructions to visibility.

* = STATION THAT DOES NOT REPORT PRECIPITATION /E.G. RAIN...SNOW...ETC/
    THUNDER OR FOG.

PAZ002>004-007>009-013>016-020>023-029>032-270500-
WESTERN PENNSYLVANIA

CITY           SKY/WX    TMP DP  RH WIND       PRES   REMARKS
ERIE           CLEAR     67  61  81 S5        30.01S
MEADVILLE      CLEAR     63  57  81 CALM      30.04F
FRANKLIN*      CLEAR     63  55  77 CALM      30.06S
NEW CASTLE     FAIR      64  61  90 S3        30.04R
BEAVER COUNTY  NOT AVBL
BUTLER*        CLEAR     66  59  77 CALM      30.05S
PITTSBURGH INT PTCLDY    75  59  57 N6        30.02S
PITTSBURGH     CLOUDY    74  59  59 N5        30.02R
INDIANA*       MOCLDY    70  63  78 CALM      30.06S
LATROBE        CLOUDY    72  66  83 CALM      30.03R
WASHINGTON CO* CLOUDY    70  64  83 CALM      30.04R
$$

PAZ004>006-010>012-017>019-024>028-033>037-041-042-045-046-049>053-270500-
CENTRAL PENNSYLVANIA

CITY           SKY/WX    TMP DP  RH WIND       PRES   REMARKS
BRADFORD       CLEAR     59  56  89 CALM      30.07R
DUBOIS         CLEAR     64  58  80 CALM      30.05S
CLEARFIELD     CLEAR     66  58  75 CALM      30.04R
JOHNSTOWN      CLOUDY    72  54  53 N3        30.06F
ALTOONA        PTCLDY    74  56  53 N6        30.03S
STATE COLLEGE  CLEAR     76  58  53 N7        30.01R
WILLIAMSPORT   MOCLDY    72  63  73 CALM      29.96R
SELINSGROVE    MOCLDY    70  66  87 N5        29.96R
FT INDIANTOWN  MOCLDY    73  67  83 VRB1      29.93S
CAPITAL CITY   PTCLDY    79  71  76 CALM      29.93R
HARRISBURG     MOCLDY    80  75  84 CALM      29.92R
YORK           PTCLDY    77  69  76 W3        29.94R
$$

PAZ038>040-043-044-047-048-054-055-060>062-067>071-270500-
EASTERN PENNSYLVANIA

CITY           SKY/WX    TMP DP  RH WIND       PRES   REMARKS
SCRANTON       MOCLDY    70  61  73 E5        29.98S
MOUNT POCONO   PTCLDY    66  58  75 N5        30.02S
ALLENTOWN      PTCLDY    73  66  78 CALM      29.94S
QUAKERTOWN*    PTCLDY    73  66  78 CALM      29.96S
READING        CLOUDY    78  66  66 CALM      29.92S
LANCASTER      PTCLDY    77  71  82 CALM      29.93S
COATESVILLE    CLOUDY    81  72  74 VRB5      29.96S
POTTSTOWN      CLOUDY    75  67  76 CALM      29.95S
BLUE BELL      CLOUDY    72  70  94 CALM      29.93R
DOYLESTOWN     MOCLDY    74  65  73 CALM      29.94S
WILLOW GROVE   NOT AVBL
NORTH PHILA    CLOUDY    80  71  74 CALM      29.93S
PHILADELPHIA   CLOUDY    82  73  74 S3        29.92S
$$




USA.gov is the U.S. government's official web portal to all federal, state and local government web resources and services.